Find Starlink 32708

NORAD ID: 62495 Int'l Des: 2025-003 Owner: SPXS Country: US Constellation: starlink operational
LEOCIRCULAR

实时位置

正在加载3D地球...

关于 Starlink 32708

正在加载描述...

即将过境

Passes for default location (London). Set your location on the main map for personalized predictions.

高度历史

Loading altitude history...

两行轨道根数

1 62495U 25003J 26124.62005979 .00019402 00000-0 71262-3 0 9996
2 62495 42.9970 333.2528 0000531 273.1665 86.9126 15.27584310 75105
Epoch: May 4, 2026 • Age: 14 hours

当前状态

高度 484.9 km
速度 7.63 km/s
星下点 35.89°N, 78.35°E
发射日期 Jan 6, 2025
运行时间 1.3 years
类型 internet

技术详情

分类 Payload
质量 730.00 kg
干质量 700.00 kg
总质量 730.00 kg
长度 0.30 m
直径 4.10 m
跨度 29.00 m
形状 Box + pan
制造商 SPXS
平台类型 Starlink V2M
阶段状态 In Orbit
所有者/国家 SPXS/US

Most Searched